Location: CARMA
(37.2805°N, 118.1419°W)
Time: 15:15:02
(UTC-07:00)

Daily predictions for brighter satellites

Satellite Brightness Start Highest point End
(mag) Time Altitude Azimuth Time Altitude Azimuth Time Altitude Azimuth
Cosmos 1743 Rocket 3.6 20:40:43 10° S 20:45:11 86° E 20:49:39 10° N
Cosmos 1500 Rocket 3.6 20:46:28 10° S 20:50:48 66° E 20:55:10 10° NNE
Meteor 1-21 Rocket 4.2 20:45:45 10° S 20:51:16 75° E 20:56:48 10° NNE
Cosmos 1437 4.2 20:48:55 10° SE 20:51:28 21° E 20:54:03 10° NE
Cosmos 2228 Rocket 3.4 20:50:19 10° N 20:54:48 73° W 20:59:18 10° S
S3M 4.0 20:55:47 10° N 21:01:55 86° W 21:08:03 10° S
Envisat 3.4 21:00:06 10° SE 21:04:57 47° ENE 21:09:49 10° N
Delta 2 Rocket 2.9 21:01:38 10° WSW 21:05:19 62° S 21:08:42 10° E
ERS-1 Rocket 3.0 21:00:46 10° SSE 21:05:47 83° ENE 21:10:51 10° NNW
Cosmos 1441 Rocket 3.7 21:02:21 10° SSW 21:06:06 63° W 21:09:50 10° N
ATLAS 2AS CENTAUR R/B 4.4 21:05:37 10° SE 21:08:31 13° E 21:11:42 10° ENE
Cosmos 2219 3.5 21:03:34 10° S 21:09:01 46° ESE 21:14:30 10° NE
deb Chang Zheng 4 3.5 21:05:30 10° NNE 21:09:50 76° ESE 21:14:11 10° S
Cosmos 2151 3.1 21:12:41 10° S 21:16:46 54° E 21:20:53 10° NNE
Cosmos 2237 Rocket 4.4 21:15:41 10° NNE 21:17:12 11° NE 21:18:42 10° ENE
USA 186 4.1 21:18:20 10° WSW 21:19:16 12° W 21:20:14 10° WNW
Cosmos 2112 Rocket 4.4 21:14:35 10° N 21:19:40 48° ENE 21:23:47 15° SE
Cosmos 2322 3.8 21:14:26 10° NNW 21:20:09 67° ENE 21:25:00 14° SSE
Cosmos 2322 Rocket 3.4 21:15:18 10° NW 21:20:29 39° WSW 21:25:39 10° S
Cosmos 1515 Rocket 4.1 21:16:56 10° NNW 21:21:19 61° W 21:25:38 10° S
CZ-4 SHROUD 3.7 21:24:12 19° SE 21:26:02 42° ENE 21:29:02 10° N
Sich 1 4.2 21:25:43 17° SE 21:27:59 26° E 21:31:38 10° NNE
Cosmos 2360 Rocket 2.2 21:23:49 10° NNW 21:29:30 83° ENE 21:34:09 16° SSE
Aureole 3 4.4 21:22:57 10° S 21:29:45 68° E 21:35:11 10° NNE
MetOp-B 4.4 21:26:17 15° SE 21:30:29 52° ENE 21:35:40 10° N
Cosmos 1908 3.5 21:26:48 10° NNW 21:30:41 71° W 21:34:30 10° S
USA 245 4.2 21:31:03 16° E 21:31:15 16° ENE 21:32:49 10° NNE
Nimbus 7 Rocket 4.4 21:25:26 10° NNE 21:31:19 89° ESE 21:37:11 10° SSW
Cosmos 2058 3.2 21:28:15 14° SSE 21:31:29 46° E 21:35:26 10° NNE
Cosmos 1633 Rocket 4.1 21:29:42 19° SE 21:31:45 27° E 21:35:25 10° NNE
NOSS 3-1 (C) 3.3 21:26:15 10° SSW 21:31:56 63° ESE 21:38:11 10° NE
SL-16 R/B 3.6 21:27:00 10° NW 21:32:03 34° WSW 21:37:04 10° SSW
Cosmos 883 Rocket 4.4 21:26:23 10° N 21:32:36 82° E 21:38:34 11° S
DELTA 2 R/B (1) 3.6 21:29:16 10° WNW 21:34:49 76° SSW 21:38:53 19° ESE
Cosmos 1674 3.5 21:32:36 10° SSW 21:36:20 52° W 21:40:07 10° N
Cosmos 405 3.4 21:33:19 10° NNW 21:36:55 62° W 21:39:59 13° S
OAO 2 Rocket 3.8 21:32:45 10° SW 21:37:46 44° SSE 21:42:20 12° E
Cosmos 1151 Rocket 3.2 21:33:36 10° NNW 21:37:54 71° W 21:41:55 12° S
OTV 4 2.6 21:40:38 10° SSW 21:41:16 14° SSW 21:41:16 14° SSW
Tiangong 1 1.0 21:43:08 10° WSW 21:46:14 86° NNW 21:49:19 10° ENE
SL-23 DEB 4.1 21:41:30 10° NW 21:46:25 62° NE 21:48:13 26° ESE
Cosmos 1805 Rocket 3.5 21:43:27 14° S 21:47:12 72° E 21:51:38 10° NNE
YAOGAN 6 2.7 21:47:15 29° SE 21:48:54 59° ENE 21:52:27 10° N
CZ-4 R/B 4.3 21:45:21 10° NNE 21:50:02 43° E 21:52:31 24° SSE
H-2A R/B 3.5 21:48:40 17° ESE 21:51:10 24° ENE 21:55:26 10° NNE
Cosmos 1300 2.9 21:47:38 10° N 21:51:25 54° E 21:52:56 31° SE
CZ-4B R/B 3.5 21:47:21 10° NNE 21:52:37 68° ESE 21:56:59 14° S
Cosmos 2227 Rocket 3.1 21:53:14 24° SE 21:54:47 28° ESE 21:59:30 10° NE
Meteor 1-11 4.2 21:50:02 12° S 21:55:21 73° E 22:01:04 10° NNE
Cosmos 1680 Rocket 3.8 21:50:57 10° NNW 21:56:09 65° WSW 21:59:53 19° S
Cosmos 2315 Rocket 4.0 21:55:54 10° N 22:02:07 82° W 22:06:49 18° S
SPOT 1/Viking Rocket 3.5 22:00:26 27° SSE 22:03:18 74° ENE 22:08:27 10° N
H-2A R/B 3.8 21:59:47 10° SSW 22:03:47 31° W 22:07:48 10° NW
PSLV R/B 4.4 22:05:24 24° SSW 22:06:44 37° W 22:09:37 10° NNW
Cosmos 1898 Rocket 3.4 22:02:06 12° SSW 22:06:53 79° ESE 22:12:06 10° NNE
Cosmos 1707 Rocket 3.5 22:03:44 10° N 22:08:07 89° E 22:10:06 32° S
Cosmos 1666 Rocket 3.5 22:07:02 23° S 22:09:45 87° W 22:14:12 10° N
Cosmos 220 Rocket 4.1 22:08:18 35° SSE 22:09:46 53° ESE 22:14:05 10° NNE
Cosmos 2333 Rocket 3.3 22:05:41 10° N 22:10:50 33° ENE 22:13:18 24° ESE
SL-16 R/B 4.4 22:08:11 10° NNE 22:10:52 13° NE 22:13:33 10° E
Cosmos 858 Rocket 4.4 22:07:51 15° SSW 22:12:11 81° ESE 22:17:24 10° NNE
Cosmos 1455 3.8 22:10:55 10° NNE 22:13:51 21° ENE 22:13:51 21° ENE
Cosmos 2150 Rocket 4.1 22:09:05 10° SSW 22:14:31 86° WNW 22:20:01 10° NNE
SPOT 5 3.8 22:11:50 17° SSW 22:15:01 41° W 22:19:31 10° NNW
Meteor 2-11 Rocket 4.5 22:15:09 10° N 22:21:20 81° W 22:24:52 27° S
Cosmos 2297 Rocket 2.9 22:21:13 32° ESE 22:21:45 32° ESE 22:26:43 10° NE
COSMOS 2428 2.8 22:17:03 10° NNW 22:22:43 75° WSW 22:25:20 33° S
Cosmos 1470 Rocket 3.7 22:22:50 46° ESE 22:23:21 48° E 22:27:32 10° NNE
Cosmos 1933 Rocket 3.8 22:23:56 45° ESE 22:24:34 49° E 22:28:52 10° NNE
Nadezhda 1 Rocket 4.3 22:18:51 10° N 22:24:45 50° E 22:26:55 35° SE
ARGOS 3.1 22:22:33 33° S 22:25:07 84° WSW 22:30:32 10° NNW
CZ-3A R/B 4.0 22:09:03 10° WSW 22:26:34 33° SSW 22:28:13 29° S
Cosmos 2219 Rocket 2.3 22:24:55 10° NNW 22:30:28 62° ENE 22:32:19 40° SE
Cosmos 1726 2.7 22:28:12 10° NNW 22:31:55 54° W 22:32:47 42° SW
Cosmos 1869 4.5 22:28:25 10° NNE 22:31:52 30° ENE 22:31:52 30° ENE
SL-08 R/B 4.4 22:29:27 26° S 22:33:13 88° W 22:39:31 10° N
Cosmos 1745 Rocket 3.9 22:31:50 31° S 22:35:04 82° E 22:41:16 10° N
CZ-4C R/B 2.9 22:35:43 81° ENE 22:35:43 81° ENE 22:39:08 10° N
NOSS 3-1 (A) 4.0 22:30:16 10° SW 22:36:01 59° NW 22:42:25 10° NNE
ERBS 3.3 22:38:38 40° NE 22:38:38 40° NE 22:40:59 10° NE
DMSP B5D2-2 4.0 22:36:02 10° NNE 22:41:13 62° ESE 22:42:19 50° SSE
Cosmos 1709 Rocket 4.5 22:42:20 37° ESE 22:43:25 40° E 22:49:03 10° NNE
Landsat 7 3.7 22:44:50 54° S 22:45:53 83° WSW 22:50:40 10° NNW
Cosmos 292 Rocket 3.7 22:42:10 10° NNW 22:46:55 75° WSW 22:47:49 56° S
NOSS 0 Rocket 3.9 22:41:14 10° NNW 22:47:25 76° ENE 22:49:19 46° SE
Delta 2 Rocket 4.3 22:44:14 10° W 22:46:07 28° WSW 22:46:07 28° WSW
USA 32 4.3 22:43:07 10° N 22:48:21 65° W 22:50:14 38° SSW
Cosmos 1980 3.8 22:44:03 10° NNW 22:49:40 64° ENE 22:51:01 49° ESE
Cosmos 1271 Rocket 3.2 22:46:29 10° NNW 22:50:14 53° W 22:50:33 51° WSW
Cosmos 1703 4.2 22:52:05 36° WSW 22:53:00 44° W 22:56:45 10° N
Spot 2 4.3 22:48:31 10° NNE 22:53:36 69° ESE 22:54:10 63° SE
Meteor 1-4 Rocket 3.5 22:50:30 10° NNW 22:54:02 40° W 22:54:14 40° WSW
Iridium 2 4.5 22:57:23 43° WSW 22:57:49 45° W 23:01:31 10° N
ATLAS 2AS CENTAUR R/B 2.8 22:52:53 21° SSW 22:58:08 78° ESE 23:06:09 10° NE
Cosmos 1386 Rocket 4.3 22:57:20 43° S 22:59:26 87° W 23:05:29 10° N
Terra 1.7 23:01:11 69° S 23:01:45 83° WSW 23:06:33 10° NNW
Cosmos 2237 Rocket 2.2 22:56:31 10° NNW 23:02:15 75° ENE 23:03:21 58° SE
Cosmos 2082 3.8 23:01:36 33° SSW 23:04:16 76° WNW 23:10:01 10° NNE
CARTOSAT-1 3.6 23:05:24 67° WSW 23:05:32 68° WSW 23:09:51 10° NNW
Lacrosse 4 Rocket 3.1 23:02:03 10° N 23:05:45 25° NE 23:06:05 25° ENE
Spot 4 3.7 23:05:42 74° SE 23:06:07 84° ENE 23:10:59 10° NNW
Cosmos 1862 Rocket 3.5 23:02:33 10° N 23:06:52 79° W 23:06:52 79° W
BREEZE-M DEB (TANK) 4.0 23:11:14 38° ENE 23:11:14 38° ENE 23:15:59 10° NE
Cosmos 1626 2.8 23:10:26 51° WNW 23:10:26 51° WNW 23:13:49 10° N
Cosmos 2181 Rocket 4.3 23:06:33 10° N 23:12:49 55° E 23:13:59 48° ESE
ATLAS 3B R/B 3.2 23:09:32 10° NNW 23:16:17 48° NE 23:18:29 36° E
OAO 2 Rocket 3.7 23:17:06 10° W 23:21:19 53° SW 23:21:19 53° SW
Tiangong 1 3.7 23:20:17 10° WNW 23:21:28 19° NW 23:21:28 19° NW
FALCON 9 R/B 3.2 23:06:34 10° W 23:27:40 74° S 23:30:02 46° ESE
H-2A R/B 2.9 23:29:19 37° WSW 23:30:16 40° W 23:35:22 10° NNW
Cosmos 1933 4.1 23:27:38 10° N 23:30:44 50° N 23:30:44 50° N
Cosmos 1869 Rocket 4.1 23:33:33 54° NE 23:33:33 54° NE 23:37:09 10° NNE
NOSS 2-3 (E) 4.3 23:34:03 52° ENE 23:34:03 52° ENE 23:38:23 10° NE
Cosmos 1269 Rocket 3.9 23:29:31 10° NNW 23:34:51 77° ENE 23:34:54 77° ENE
COSMOS 2455 2.9 23:29:42 10° NNW 23:35:43 66° ENE 23:36:29 60° E
Cosmos 2227 Rocket 3.5 23:34:58 18° WSW 23:38:37 37° WNW 23:43:52 10° N
CZ-4B R/B 4.2 23:44:29 14° NE 23:44:29 14° NE 23:45:23 10° NNE
ALOS 2 4.1 23:46:38 28° NE 23:46:38 28° NE 23:49:45 10° N
SeaSat 1 2.8 23:49:07 54° ENE 23:49:07 54° ENE 23:53:51 10° NNW
Cosmos 1455 4.4 23:46:39 10° NW 23:48:54 19° WNW 23:48:54 19° WNW
